{"data":{"norad_id":64164,"intl_designator":"2025-112U","name":"STARLINK-34263","alt_names":[],"object_type":"PAYLOAD","status":"ACTIVE","operator":null,"country":"US","launch_date":"2025-05-27","launch_site_code":"AFWTR","launch_vehicle":null,"mission":null,"orbit_class":"UNKNOWN","rcs_meters":null,"size_class":null,"mass_kg":null,"dimensions":null,"purposes":["comms"],"wikipedia_slug":null,"has_3d_model":false,"image_url":null,"decayed_at":null,"tle_current":{"epoch":"2026-09-20T20:48:37.222272Z","epoch_age_seconds":108743,"freshness":"FRESH","line1":"1 64164U 25112U   26263.86709748  .00018962  00000+0  58800-3 0  9999","line2":"2 64164  97.2847 310.9232 0000242 219.4090 140.7135 15.33457111 72802","mean_motion":15.33457111,"eccentricity":2.42e-5,"inclination_deg":97.2847,"raan_deg":310.9232,"arg_perigee_deg":219.409,"mean_anomaly_deg":140.7135,"bstar":0.000588,"rev_number":7280,"period_min":93.905463000589,"perigee_km":465.34152471189,"apogee_km":465.67275708831,"semimajor_km":6843.6441409001,"source":"CELESTRAK","updated_at":"2026-09-21T09:00:35.241173Z"}}}